AC 10 PROBE (FULLER) (45528 NORAD) Tracking and Keplerian Element Data

This shows tracking and keplerian element data for the satellite.

Feedback or suggestion? Click here.




ElementValue
Catalog45528
NameAC 10 PROBE (FULLER)
Epoch Orbit1300
Epoch Day196.87618528
Epoch Year2020
RAAN259.2712
Inclination51.6366
Eccentricity0.0005466
Argument of Perigee3.7783
Mean Anonmoly356.3242
Mean Motion15.38527188
Decay Rate0.00064223
L11 45528U 19022M 20196.87618528 .00064223 00000-0 16578-2 0 9997
L22 45528 51.6366 259.2712 0005466 3.7783 356.3242 15.38527188 13007

Live tracking and technical data element details for AC 10 PROBE (FULLER) (NORAD 45528). AC 10 PROBE (FULLER) can be tracked NOW for your location showing map with azimuth and elevation plus other details from your city location.

Track the satellite on the map from your city or location and see movement details for azimuth, elevation, latitude, longitude, range, height, and movement on the map or in text.







IsCatalogInMostPopularTable: catalog: 45528, numindb: 14
Update: records affected: 1



GetName: 45528 AC 10 PROBE (FULLER)

Hit Count: updated at: Thu, 16 Jul 2020 02:40:20 GMT